www.pogodaiklimat.ru

Погода и климат >> Архив погоды >> Кот-д'Ивуар >> Ямусукро


ПОГОДА в Ямусукро

  • Прогноз погоды в Ямусукро
  • Монитор погоды в Ямусукро

АРХИВ ПОГОДЫ в Ямусукро

Время (UTC), дата Ветер
(напр.,м/с)
 
Видим.   Явления Облачность Т
(С)
Тd
(С)
f
(%)
Тe
(С)
Тes
(С)
Комфортность P
(гПа)
Po
(гПа)
Тmin
(С)
Tmax
(С)
R
(мм)
R24
(мм)
S
(см)
00 12.06 Ю 2 10 км 9/4 300 м
[Sc Ac As]
+24.4 +23.0 92 +32 +32 очень
душно
1012.2 989.2
06 12.06 ЮЗ 2 6000 м слаб. дождь 10/8 300 м
[Sc Ac As]
+23.2 +22.8 98 +32 +32 очень
душно
1012.6 989.6 +22.7 8
12 12.06 ЮЗ 2 10 км в посл. час снег {дождь} 9/9 400 м
[Cu med, cong]
+27.4 +23.4 79 +37 +39 очень
душно
1013.6 990.8 2
18 12.06 СЗ 2 10 км 3/1 400 м
[Cu med, cong Ac trans]
+26.4 +23.7 85 +36 +36 очень
душно
1010.7 987.9 +30.5 1
00 13.06 Ю 2 10 км ясно +24.2 +23.2 94 +32 +32 очень
душно
1013.8 990.8
06 13.06 штиль 0 8000 м 8/0
[Ac As]
+22.3 +22.0 98 +30 +30 очень
душно
1014.2 991.0 +22.0 1
12 13.06 З 4 10 км 8/8 400 м
[Cu med, cong]
+29.6 +23.1 68 +40 +42 очень
душно
1013.8 991.2
18 13.06 штиль 0 10 км 3/3 450 м
[Cu med, cong]
+29.9 +22.1 63 +39 +39 очень
душно
1010.3 987.7 +32.5
21 13.06 штиль 0 10 км 4/1 300 м
[Sc Ac trans]
+24.9 +24.0 95 +34 +34 очень
душно
1012.9 989.9
00 14.06 штиль 0 10 км 4/4 300 м
[Sc]
+24.0 +23.5 97 +32 +32 очень
душно
1013.0 990.0
03 14.06 ЮЗ 4 10 км 3/3 300 м
[Sc Ac trans]
+23.6 +22.6 94 +31 +31 очень
душно
1011.6 988.6
06 14.06 ЮЗ 3 8000 м 3/0
[Ac trans]
+22.9 +22.4 97 +31 +31 очень
душно
1013.0 989.9 +22.6
09 14.06 ЮЗ 5 10 км 6/6 330 м
[Cu med, cong Ac trans]
+25.8 +22.9 84 +34 +36 очень
душно
1014.0 991.1
12 14.06 ЮЗ 3 10 км 9/6 400 м
[Cu med, cong Ac As]
+28.2 +23.3 75 +38 +41 очень
душно
1013.3 990.6
15 14.06 СВ 8 1500 м гроза, ливневой дождь 10/8 400 м
[Cb cap Ac As]
+22.1 +21.6 97 +29 +29 очень
душно
1012.1 988.9
18 14.06 штиль 0 10 км в посл. час гроза {дождь} 9/3 400 м
[Sc Ac As]
+22.1 +21.4 96 +29 +29 очень
душно
1010.0 986.9 +30.6 20
21 14.06 штиль 0 10 км зарница 9/3 300 м
[Cb cap Ac As]
+22.1 +21.9 99 +29 +29 очень
душно
1014.0 990.8
00 15.06 ЮЗ 3 10 км 8/3 300 м
[Sc Ac As Cs]
+22.2 +21.9 98 +29 +29 очень
душно
1016.0 990.4
03 15.06 штиль 0 8000 м в посл. час дождь 9/9 300 м
[Sc]
+22.1 +21.9 99 +29 +29 очень
душно
1011.5 988.3
06 15.06 штиль 0 6000 м в посл. час дождь 10/6 300 м
[Sc Ac As]
+22.2 +22.2 100 +30 +30 очень
душно
1012.0 988.8 +21.7 25
09 15.06 штиль 0 10 км 10/10 300 м
[Cu med, cong]
+24.1 +23.4 96 +32 +32 очень
душно
1013.4 990.4
12 15.06 Ю 3 10 км {туман} 10/10 400 м
[Cu med, cong]
+26.7 +24.2 86 +37 +37 очень
душно
1013.0 990.2
15 15.06 З 2 10 км 9/6 400 м
[Cu med, cong Ac trans]
1010.7 988.1
18 15.06 СЗ 2 10 км 9/4 400 м
[Cb cap Ac trans]
+27.8 +25.0 85 +40 +40 очень
душно
1011.0 988.3 +30.0
21 15.06 З 2 8000 м гроза без осадков 10/6 300 м
[Cb cap Ac As]
+25.3 +25.0 98 +36 +36 очень
душно
1013.7 990.8
00 16.06 ЮЗ 2 8000 м {гроза, дождь} 10/6 300 м
[Sc Ac As]
+24.5 +24.0 97 +34 +34 очень
душно
1014.7 991.8 3
03 16.06 ЮЗ 2 10 км 10/5 300 м
[Sc Ac As]
+23.5 +23.2 98 +31 +31 очень
душно
1012.7 989.6
06 16.06 ЮЗ 3 6000 м 10/10 300 м
[Sc]
+23.1 +23.0 99 +32 +32 очень
душно
1013.1 990.0 +22.4 6
09 16.06 штиль 0 10 км 10/10 300 м
[Cu med, cong]
+25.4 +23.6 90 +35 +35 очень
душно
1014.1 991.2
12 16.06 ЮЗ 3 10 км 9/9 400 м
[Cu med, cong]
+28.0 +23.6 77 +38 +40 очень
душно
1013.5 990.8
15 16.06 ЮВ 2 10 км 9/9 400 м
[Cu med, cong Ac As]
+30.2 +23.4 67 +41 +42 опасность
перегрева
1011.0 988.5
18 16.06 штиль 0 10 км 10/0
[Ac As]
+27.5 +25.3 88 +40 +40 очень
душно
1011.1 988.4 +31.0
21 16.06 Ю 2 10 км 5/0
[Ac As]
+25.3 +24.3 94 +35 +35 очень
душно
1013.3 990.4
00 17.06 Ю 2 10 км 9/0
[Ac trans]
+24.8 +23.9 95 +34 +34 очень
душно
1013.1 990.1
03 17.06 штиль 0 10 км 9/0
[Ac trans]
+23.8 +23.5 98 +32 +32 очень
душно
1013.9 990.8
06 17.06 штиль 0 10 км 4/0
[Ac trans]
+23.3 +22.8 97 +32 +32 очень
душно
1012.9 989.8 +22.4
09 17.06 ЮЗ 2 10 км 8/8 330 м
[Cu med, cong Ac trans]
+26.5 +22.9 81 +35 +37 очень
душно
1014.8 991.9
15 17.06 С 2 10 км 5/5 450 м
[Cu med, cong]
+31.1 +23.5 64 +42 +48 опасность
перегрева
1010.4 988.9
18 17.06 штиль 0 10 км 3/1 450 м
[Cu med, cong Ci sp]
+30.9 +24.5 69 +44 +44 опасность
перегрева
1009.6 987.2 +32.4
21 17.06 З 2 10 км 4/4 400 м
[Sc Ci sp]
+26.3 +24.7 91 +37 +37 очень
душно
1012.1 989.3
00 18.06 ЮЗ 2 10 км 6/6 300 м
[Sc]
+25.0 +24.0 94 +34 +34 очень
душно
1013.5 990.5
03 18.06 ЮЗ 2 10 км 10/10 300 м
[Sc]
+24.5 +23.5 94 +33 +33 очень
душно
1012.9 989.9
06 18.06 ЮЗ 2 10 км 10/10 300 м
[Sc]
+24.3 +23.4 95 +33 +33 очень
душно
1013.4 990.4 +24.0
09 18.06 ЮЗ 2 8000 м 9/9 330 м
[Cu med, cong]
+26.4 +23.7 85 +36 +37 очень
душно
1014.8 991.9
12 18.06 ЮЗ 4 10 км 9/9 450 м
[Cu med, cong]
+29.5 +23.4 70 +40 +41 очень
душно
1013.8 991.2
15 18.06 С 3 10 км 5/5 450 м
[Cu med, cong]
+31.5 +23.6 63 +43 +48 опасность
перегрева
1010.8 988.4
18 18.06 штиль 0 10 км 3/1 450 м
[Cu med, cong]
+31.0 +23.4 64 +42 +42 опасность
перегрева
1010.3 987.8 +33.6

 

Местоположение метеостанции Ямусукро (Кот-д'Ивуар): широта 6.90 долгота -5.35 высота над уровнем моря 213 м.

В архиве по умолчанию представлена погода в Ямусукро за последнюю неделю. Архивные данные за месяц целиком и за предыдущие месяцы, начиная с января 2011 года, Вы можете получить, выбрав интересующий диапазон дат из раскрывающегося списка и нажав кнопку "Ввод!".


*Определитесь, кто Вы:
робот инопланетянин человек

Внимание! Время в таблицах - всемирное. Для получения местного времени необходимо прибавить поправку, которая равна 0 ч.

Смотрите также архив погоды в соседних городах и на ближайших метеорологических станциях:

Погода в Димбокро (Кот-д'Ивуар) (77 км)
Погода в Буаке (Кот-д'Ивуар) (98 км)
Погода в Ганьоа (Кот-д'Ивуар) (108 км)
Погода в Далоа (Кот-д'Ивуар) (124 км)
Погода в Сассандре (Кот-д'Ивуар) (231 км)
Погода в Абиджане (Кот-д'Ивуар) (242 км)
Погода в Мане (Кот-д'Ивуар) (245 км)
Погода в Сан-Педро (Кот-д'Ивуар) (279 км)
Погода в Корого (Кот-д'Ивуар) (282 км)
Погода в Адиаке (Кот-д'Ивуар) (288 км)

Пояснения к столбцам:

Ветер - указаны скорость ветра в м/с - средняя за 10 мин, порывы в срок и между сроками (в фигурных скобках) и направление, откуда дует ветер: С - северный, СВ - северо-восточный, В - восточный, ЮВ - юго-восточный, Ю - южный, ЮЗ - юго-западный, З - западный, СЗ - северо-западный.
Видимость - горизонтальная дальность видимости в метрах или километрах. При видимости от 1 до 10 км при отсутствии осадков обычно наблюдается дымка, при ухудшении видимости до 1 км и менее - туман. В сухую погоду видимость может ухудшаться дымом, пылью или мглою.
Явления - указаны атмосферные явления, наблюдавшиеся в срок или в последний час перед сроком; фигурными скобками обозначены явления, наблюдавшиеся между сроками (за 1-3 часа до срока); квадратными скобками обозначены град или гололедные отложения с указанием их диаметра в мм.
Облачность - указаны через наклонную черту общая и нижняя облачность в баллах и высота нижней границы облаков в метрах; квадратными скобками обозначены формы облаков: Ci - перистые, Cs - перисто-слоистые, Cc - перисто-кучевые, Ac - высококучевые, As - высокослоистые, Sc - слоисто-кучевые, Ns - слоисто-дождевые, Cu - кучевые, Cb - кучево-дождевые. Подробнее классификацию облаков см. в Атласе облаков (PDF).
T - Температура воздуха - температура, измеренная на высоте 2 м над землей.
Td - Температура точки росы - температура, при понижении до которой содержащийся в воздухе водяной пар достигнет насыщения.
f - Относительная влажность воздуха - влажноcть воздуха, измеренная на высоте 2 м над землей.
Te - Эффективная температура - температура, которую ощущает одетый по сезону человек в тени. Характеристика душности погоды. При расчете учитывается влияние влажности воздуха и скорости ветра на теплоощущения человека.
Tes - Эффективная температура на солнце - температура, которую ощущает человек, с поправкой на солнечный нагрев. Характеристика знойности погоды. Зависит от высоты солнца над горизонтом, облачности и скорости ветра. Ночью, в пасмурную погоду, а также при ветре 12 м/с и более поправка равна нулю.
P - Атмосферное давление - приведенное к уровню моря атмосферное давление.
Po - Атмосферное давление - измеренное на уровне метеостанции атмосферное давление.
Tmin - Минимальная температура - минимум температуры воздуха на высоте 2 м над землей.
Tmax - Максимальная температура - максимум температуры воздуха на высоте 2 м над землей.
R - Количество осадков - Количество выпавших осадков за период времени, мм. При наведении курсора мыши на число - период времени, за который выпало указанное количество осадков.
R24 - Количество осадков - Количество выпавших осадков за 24 часа, мм.
S - Снежный покров - Высота снежного покрова, см. При наведении курсора мыши на число - состояние снежного покрова и степень покрытия местности в баллах.